Lid_Strength_Index
1 1 1 1 1 1 0 0 -1 -1 -1 -1 -1 -1 -1 -0 -0 -1 -0 -0 -0 -0
1 1 1 0 -0 0 -1 -0 -0 -1 -1 -1 -1 -1 -1 -0 -1 -1 -1 -1 -1 -0
1 0 0 0 0 0 -0 -1 -0 -0 -0 -0 -1 -1 -1 -0 -1 -1 -0 -0 -1 -1
1 1 1 0 1 0 -0 0 0 0 0 0 -0 -0 -0 -1 -0 -0 -0 -1 -0 -0
1 1 2 1 0 1 1 -0 -0 -0 -0 -0 -0 -0 0 0 -0 0 0 0 -0 0
1 2 2 3 2 2 1 0 0 0 0 0 -0 0 -0 -0 -0 -0 -0 -0 -0 0
2 2 3 3 2 1 1 1 0 0 0 0 0 -0 -0 -0 -0 -0 -0 -0 -0 -0
1 2 1 1 3 1 1 1 1 1 0 0 0 0 -0 -0 -0 -0 -0 -0 -0 -1
2 1 1 1 2 1 1 1 1 1 1 1 0 4 4 1 -0 -0 0 0 -0 -1
1 2 2 1 1 2 1 1 1 1 1 1 1 7 6 4 -0 -0 -0 -0 -0 0
2 2 2 2 2 2 1 1 1 1 1 1 1 8 8 6 -0 -0 -0 -0 -0 -0
2 2 2 2 2 2 1 1 1 1 1 1 4 10 9 5 0 0 -0 -0 0 1
2 2 2 2 2 2 1 1 1 1 0 2 3 11 9 6 1 0 1 0 1 5
3 1 1 1 1 2 1 1 1 1 1 1 3 7 10 8 3 3 3 3 3 3